Regional Weather Roundup
Issued by NWS

Home | Current Version | Previous Version | Text Only | Print | Product List | Glossary Off
Versions: 1 2 3 4 5 6 7 8 9 10 11 12 13 14 15 16 17 18 19 20 21 22 23 24 25 26 27 28 29 30 31 32 33 34 35 36 37 38 39 40 41 42 43 44 45 46 47 48 49 50

000
ASUS43 KMKX 021300
RWRWI

WISCONSIN REGIONAL WEATHER ROUNDUP
NATIONAL WEATHER SERVICE MILWAUKEE/SULLIVAN WI
700 AM CST FRI DEC 02 2016

NOTE: "FAIR" INDICATES FEW OR NO CLOUDS BELOW 12,000 FEET WITH NO
SIGNIFICANT WEATHER AND/OR OBSTRUCTIONS TO VISIBILITY.

WIZ001-002-006>008-014>016-023>028-021400-
NORTHWEST WISCONSIN

CITY           SKY/WX    TMP DP  RH WIND       PRES   REMARKS
SUPERIOR ARPT  CLOUDY    29  23  77 NW9       30.14R WCI  21
ASHLAND        CLOUDY    29  22  75 W16       30.12R WCI  17
HAYWARD        CLOUDY    29  22  75 VRB3      30.10R
SIREN          CLOUDY    30  24  78 NW6       30.13R WCI  24
CUMBERLAND     CLOUDY    28  21  74 W6        30.11R WCI  22
RICE LAKE      CLOUDY    30  23  76 W5        30.13R WCI  25
CHETEK         CLOUDY    29  22  74 W5        30.12R WCI  24
LADYSMITH      CLOUDY    30  23  75 NW9       30.11S WCI  22
EAU CLAIRE     NOT AVBL
MENOMONIE      CLOUDY    31  22  69 W5        30.14R WCI  26
NEW RICHMOND   CLOUDY    30  23  75 CALM      30.14R
OSCEOLA        CLOUDY    31  23  72 CALM      30.17R
$$

WIZ003>005-009-010-017-018-021400-
NORTH CENTRAL WISCONSIN

CITY           SKY/WX    TMP DP  RH WIND       PRES   REMARKS
MANITOWISH WTR CLOUDY    26  26  97 W8        30.04R WCI  18
ARBOR VITAE    CLOUDY    29  26  86 NW7       30.04R WCI  22
WOODRUFF       CLOUDY    29  26  86 NW7       30.04R WCI  22
RHINELANDER    CLOUDY    29  24  82 NW9       30.04R WCI  20
EAGLE RIVER    CLOUDY    27  23  84 NW9G18    30.02R WCI  18
LAND O LAKES   CLOUDY    28  26  94 NW8       30.03R WCI  20
PHILLIPS       CLOUDY    27  23  84 NW3       30.06R
TOMAHAWK       CLOUDY    27  21  80 NW7       30.06R WCI  19
MEDFORD        CLOUDY    28  22  79 N5        30.06R WCI  22
MERRILL        CLOUDY    28  23  81 NW7       30.07R WCI  21
$$

WIZ029-030-035-036-043>047-021400-
CENTRAL WISCONSIN

CITY           SKY/WX    TMP DP  RH WIND       PRES   REMARKS
WAUSAU         CLOUDY    28  21  75 NW12      30.06R WCI  18
MOSINEE        CLOUDY    28  25  86 NW10G16   30.08R WCI  19
MARSHFIELD     CLOUDY    29  21  72 NW9       30.07R WCI  20
STEVENS POINT  CLOUDY    29  22  75 NW5       30.07R WCI  24
WAUPACA        CLOUDY    33  24  69 W6        30.08R WCI  28
WAUTOMA        CLOUDY    31  24  75 NW8       30.09R WCI  23
WISC RAPIDS    CLOUDY    31  22  69 N9        30.09R WCI  23
CAMP DOUGLAS   NOT AVBL
$$

WIZ011>013-019>022-031-037>040-048>050-021400-
NORTHEAST WISCONSIN

CITY           SKY/WX    TMP DP  RH WIND       PRES   REMARKS
ANTIGO         CLOUDY    27  22  80 NW16      30.03R WCI  15
SHAWANO        CLOUDY    33  23  66 NW9       30.07R WCI  25
OCONTO         CLOUDY    32  23  69 N6        30.05R WCI  26
STURGEON BAY   CLOUDY    31  24  75 NW10      30.05R WCI  22
GREEN BAY      CLOUDY    34  26  72 NW8       30.06R WCI  27
MANITOWOC      NOT AVBL
APPLETON       CLOUDY    32  21  64 NW8       30.05R WCI  25
CLINTONVILLE   CLOUDY    32  23  69 NW9       30.07R WCI  24
OSHKOSH        CLOUDY    32  23  69 W9        30.06S WCI  24
$$

WIZ032>034-041-042-053>061-021400-
SOUTHWEST WISCONSIN

CITY           SKY/WX    TMP DP  RH WIND       PRES   REMARKS
LA CROSSE      CLOUDY    34  24  67 N13       30.14R WCI  25
SPARTA         CLOUDY    31  24  73 NW9       30.12R WCI  23
VIROQUA        CLOUDY    31  25  78 W7        30.10R WCI  24
BOSCOBEL       CLOUDY    36  25  64 NW7       30.13R WCI  30
PRAIRIE DU CHI CLOUDY    35  29  78 NW9       30.12R WCI  28
PLATTEVILLE    CLOUDY    33  33 100 W6        30.11R WCI  28
$$

WIZ056-057-062-063-064-067-068-021400-
SOUTH CENTRAL WISCONSIN

CITY           SKY/WX    TMP DP  RH WIND       PRES   REMARKS
REEDSBURG      CLOUDY    32  23  70 NW10G16   30.10R WCI  23
BARABOO/DELLS  CLOUDY    32  24  72 NW6       30.09R WCI  26
LONE ROCK      NOT AVBL
MINERAL POINT  CLOUDY    36  34  93 NW8       30.09R WCI  29
MADISON        CLOUDY    33  26  75 N7        30.09R WCI  27
MIDDLETON      CLOUDY    35  29  78 NW7       30.09R WCI  29
WATERTOWN      CLOUDY    33  27  80 NW8       30.08R WCI  25
MONROE         CLOUDY    34  32  93 NW6       30.08R WCI  29
JANESVILLE     CLOUDY    36  36 100 W6        30.09R WCI  31
$$

WIZ051-052-058>065-066-070>072-021400-
SOUTHEAST WISCONSIN

CITY           SKY/WX    TMP DP  RH WIND       PRES   REMARKS
MILWAUKEE      CLOUDY    35  25  66 NW9       30.08R WCI  28
WAUKESHA       CLOUDY    30  25  80 NW7       30.08R WCI  23
MILWAUKEE/TIMM NOT AVBL
RACINE         CLOUDY    36  28  73 NW10      30.09R WCI  28
BURLINGTON     CLOUDY    34  31  90 CALM      30.08R
KENOSHA        CLOUDY    35  31  85 W7        30.08R WCI  29
FOND DU LAC    CLOUDY    33  21  61 NW12      30.07R WCI  24
SHEBOYGAN      CLOUDY    33  25  72 NW7       30.06R WCI  27
WEST BEND      CLOUDY    32  27  80 NW8       30.06R WCI  25
JUNEAU         CLOUDY    32  25  74 W5        30.08R WCI  27
$$

LSZ147-162-021400-
LAKE SUPERIOR

STATION/POSITION TIME  TEMP    WIND        PRES    WAVE
                       AIR SEA DIR/SP/G            HT/PER
                 (UTC) (F)     (DEG/KT/KT) (MB)    (FT/S)
DEVILS ISLAND    1200   31     280/ 12/ 14 1019.8R
PORT WING        1230   30     330/ 12/ 14 1020.0R
SAXON HARBOR     1240   31     270/  3/  8 1019.3R
$$

LMZ867-665-643>646-021400-
LAKE MICHIGAN

STATION/POSITION TIME  TEMP    WIND        PRES    WAVE
                       AIR SEA DIR/SP/G            HT/PER
                 (UTC) (F)     (DEG/KT/KT) (MB)    (FT/S)
CHAMBERS ISLAND  1240   32     300/  6/ 14 1016.6R
NORTHPORT PIER   1240   33     290/  9/ 16 1016.3R
SISTER BAY       1208   33     350/ 19/ 22   N/A
ALGOMA LAKESHORE 1121          320/  8/ 11   N/A
KEWAUNEE LAKESHO 1230   32     310/  4/  6 1016.8R
SHEBOYGAN LAKESH 1200   34     330/ 11/ 13 1018.0R
PORT WASHINGTON  1240   34     300/  5/ 14 1019.3R
MILWAUKEE LAKESH 1220   35     320/ 11/ 15   N/A
S MID LAKE BUOY  1150   40 49  300/ 23/ 27 1016.9R   4/ 5
KENOSHA   LAKESH 1200   36     290/  6/  9 1018.3
$$

TC  - TEMPERATURE IN CELSIUS
VSB - VISIBILITY IN STATUTE MILES
WCI - WIND CHILL INDEX
HX  - HEAT INDEX





USA.gov is the U.S. government's official web portal to all federal, state and local government web resources and services.